LSZH

Zürich Airport

Airport
ICAO code
LSZH
IATA Code
ZRH
Summary
ICAO Region
EUR
ICAO Territory
Location

Kloten, Zürich

Serving
Zürich
Elevation
1416 ft
Coordinates
47° 27' 53" N , 8° 32' 57" E
KCC
Metar
LSZH 191450Z 28005KT 240V320 9999 FEW070 29/14 Q1018 NOSIG

An airport serving Grenchen, a municipality in the district of Lebern in the canton of Solothurn in Switzerland.

Climatology

Temperate Marine climate/Oceanic climate (Köppen climate classification Cfb).

Runways

Designator Length Width Surface Rops
10/28 2500 60 CON Yes/Yes
14/32 3300 60 CON Yes/Yes
16/34 3700 60 CON Yes/Yes

SKYbrary Partners:

Safety knowledge contributed by: